Home > Weather > Khan Yunis > Past weeks

Flag for Palestinian Territories Weather for the Past 2 Weeks in Khan Yunis, Gaza Strip, Palestinian Territories

Now
66 °F

Passing clouds.


Feels Like: 66 °F
Forecast: 52 / 67 °F
Wind: 3 mph from Southwest

Location: El Arish

Current Time: Feb 11, 2016 at 1:58:51 PM

Latest Report: Feb 11, 2016 at 1:00 PM


Visibility: N/A

Pressure: 30.21 "Hg

Humidity: 49%

Dew point: 46 °F

Location of Khan YunisLocation

Historic Weather in Khan Yunis — Graph

°F

Khan Yunis Temperature Yesterday

Maximum temperature yesterday: 64 °F (at 2:00 PM)
Minimum temperature yesterday: 46 °F (at 12:00 AM)
Average temperature yesterday: 54 °F

High & Low Weather Summary for the Past Weeks

 TemperatureHumidityPressure
High79 °F (Feb 4, 3:00 PM)100% (Jan 27, 4:00 PM)30.45 "Hg (Jan 27, 4:00 PM)
Low36 °F (Jan 28, 6:00 AM)21% (Feb 4, 3:00 PM)29.95 "Hg (Feb 5, 6:00 AM)
Average54 °F82%30.19 "Hg
* Reported Jan 27 12:00 Noon — Feb 11 12:00 Noon, Khan Yunis, Weather by CustomWeather, © 2016

Note: Actual official high and low records may vary slightly from our data, if they occured in-between our weather recording intervals... More about our weather records

Advertising

Khan Yunis Weather History for the Previous 24 Hours

 ConditionsComfort  
Time TempWeatherWind HumidityBarometerVisibility
12:00 PM
Thu, Feb 11
64 °FSunny.5 mph52%30.24 "Hg10 mi
11:00 AM63 °FSunny.5 mph59%30.24 "Hg10 mi
10:00 AM59 °FSunny.5 mph68%30.27 "Hg10 mi
9:00 AM57 °FSunny.3 mph77%30.24 "Hg10 mi
8:00 AM54 °FSunny.3 mph88%30.24 "Hg10 mi
7:00 AM46 °FSunny.5 mph93%30.24 "Hg10 mi
6:00 AM45 °FClear.6 mph100%30.21 "Hg10 mi
5:00 AM46 °FClear.3 mph100%30.21 "Hg10 mi
4:00 AM48 °FClear.5 mph100%30.18 "Hg10 mi
3:00 AM48 °FClear.3 mph100%30.18 "Hg10 mi
2:00 AM48 °FClear.5 mph100%30.18 "Hg10 mi
1:00 AM48 °FClear.3 mph100%30.18 "Hg10 mi
12:00 AM48 °FClear.3 mph94%30.18 "Hg10 mi
11:00 PM
Wed, Feb 10
50 °FClear.2 mph88%30.18 "Hg10 mi
10:00 PM50 °FPassing clouds.No wind82%30.18 "HgN/A
9:00 PM52 °FPassing clouds.2 mph82%30.18 "HgN/A
8:00 PM50 °FPassing clouds.2 mph88%30.18 "HgN/A
7:00 PM54 °FPassing clouds.3 mph82%30.15 "HgN/A
6:00 PM57 °FPassing clouds.3 mph67%30.15 "HgN/A
5:00 PM61 °FPassing clouds.8 mph63%30.12 "HgN/A
4:00 PM63 °FPassing clouds.10 mph64%30.12 "HgN/A
3:00 PM64 °FPassing clouds.10 mph60%30.09 "HgN/A
2:00 PM64 °FPartly sunny.12 mph56%30.09 "HgN/A
1:00 PM63 °FScattered clouds.10 mph73%30.09 "HgN/A
Weather by CustomWeather, © 2016

See weather overviewHow to use our weather pages